• In Belarus
  • List of Countries
  • For 7 days
  • Water Temperature
  • Weather Map
  • Weather Widgets
  • user-avatar
    Login

    Hourly Weather Kankan

    Today, 29 January, Wednesday

    Time Temperature Precipitation Wind Pressure Humidity
    00:00 +18°C° 0 mm 1 mps 685 mmHg 15%
    01:00 +16°C° 0 mm 1 mps 685 mmHg 15%
    02:00 +16°C° 0 mm 1 mps 684 mmHg 15%
    03:00 +15°C° 0 mm 1 mps 684 mmHg 15%
    04:00 +15°C° 0 mm 1 mps 684 mmHg 15%
    05:00 +14°C° 0 mm 1 mps 684 mmHg 16%
    06:00 +14°C° 0 mm 1 mps 684 mmHg 17%
    07:00 +14°C° 0 mm 1 mps 685 mmHg 18%
    08:00 +19°C° 0 mm 1 mps 686 mmHg 15%
    09:00 +21°C° 0 mm 2 mps 687 mmHg 12%
    10:00 +26°C° 0 mm 2 mps 688 mmHg 8%
    11:00 +28°C° 0 mm 3 mps 688 mmHg 7%
    12:00 +29°C° 0 mm 3 mps 687 mmHg 7%
    13:00 +31°C° 0 mm 3 mps 687 mmHg 6%
    14:00 +31°C° 0 mm 3 mps 687 mmHg 6%
    15:00 +31°C° 0 mm 3 mps 686 mmHg 6%
    16:00 +31°C° 0 mm 3 mps 685 mmHg 6%
    17:00 +29°C° 0 mm 3 mps 685 mmHg 7%
    18:00 +26°C° 0 mm 2 mps 685 mmHg 9%
    19:00 +23°C° 0 mm 2 mps 685 mmHg 10%
    20:00 +21°C° 0 mm 2 mps 685 mmHg 12%
    21:00 +20°C° 0 mm 1 mps 685 mmHg 13%
    22:00 +19°C° 0 mm 1 mps 686 mmHg 15%
    23:00 +18°C° 0 mm 1 mps 686 mmHg 16%

    Tomorrow, 30 January, Thursday

    Time Temperature Precipitation Wind Pressure Humidity
    00:00 +18°C° 0 mm 1 mps 685 mmHg 17%
    01:00 +16°C° 0 mm 1 mps 685 mmHg 18%
    02:00 +15°C° 0 mm 1 mps 685 mmHg 19%
    03:00 +15°C° 0 mm 1 mps 685 mmHg 19%
    04:00 +14°C° 0 mm 1 mps 684 mmHg 20%
    05:00 +14°C° 0 mm 1 mps 685 mmHg 20%
    06:00 +14°C° 0 mm 1 mps 685 mmHg 19%
    07:00 +13°C° 0 mm 1 mps 685 mmHg 19%
    08:00 +18°C° 0 mm 1 mps 686 mmHg 16%
    09:00 +21°C° 0 mm 2 mps 688 mmHg 12%
    10:00 +26°C° 0 mm 3 mps 689 mmHg 8%
    11:00 +28°C° 0 mm 3 mps 689 mmHg 7%
    12:00 +29°C° 0 mm 4 mps 688 mmHg 6%
    13:00 +32°C° 0 mm 4 mps 688 mmHg 6%
    14:00 +32°C° 0 mm 4 mps 687 mmHg 6%
    15:00 +33°C° 0 mm 4 mps 687 mmHg 6%
    16:00 +33°C° 0 mm 4 mps 686 mmHg 6%
    17:00 +29°C° 0 mm 3 mps 686 mmHg 8%
    18:00 +26°C° 0 mm 2 mps 685 mmHg 10%
    19:00 +23°C° 0 mm 1 mps 685 mmHg 12%
    20:00 +22°C° 0 mm 1 mps 685 mmHg 13%
    21:00 +20°C° 0 mm 1 mps 686 mmHg 14%
    22:00 +19°C° 0 mm 1 mps 686 mmHg 15%
    23:00 +19°C° 0 mm 1 mps 686 mmHg 16%

    Day after tomorrow, 31 January, Friday

    Time Temperature Precipitation Wind Pressure Humidity
    00:00 +18°C° 0 mm 1 mps 686 mmHg 17%
    01:00 +16°C° 0 mm 1 mps 685 mmHg 18%
    02:00 +15°C° 0 mm 1 mps 685 mmHg 18%
    03:00 +15°C° 0 mm 1 mps 685 mmHg 19%
    04:00 +14°C° 0 mm 1 mps 684 mmHg 19%
    05:00 +14°C° 0 mm 1 mps 685 mmHg 18%
    06:00 +14°C° 0 mm 1 mps 685 mmHg 18%
    07:00 +14°C° 0 mm 1 mps 685 mmHg 17%
    08:00 +17°C° 0 mm 2 mps 686 mmHg 16%
    09:00 +21°C° 0 mm 2 mps 687 mmHg 14%
    10:00 +25°C° 0 mm 3 mps 688 mmHg 12%
    11:00 +27°C° 0 mm 4 mps 688 mmHg 11%
    12:00 +29°C° 0 mm 4 mps 688 mmHg 10%
    13:00 +32°C° 0 mm 4 mps 688 mmHg 9%
    14:00 +32°C° 0 mm 4 mps 687 mmHg 9%
    15:00 +32°C° 0 mm 4 mps 686 mmHg 9%
    16:00 +33°C° 0 mm 3 mps 685 mmHg 10%
    17:00 +29°C° 0 mm 3 mps 685 mmHg 12%
    18:00 +26°C° 0 mm 2 mps 685 mmHg 15%
    19:00 +23°C° 0 mm 1 mps 685 mmHg 18%
    20:00 +22°C° 0 mm 1 mps 685 mmHg 20%
    21:00 +21°C° 0 mm 1 mps 685 mmHg 22%
    22:00 +19°C° 0 mm 1 mps 686 mmHg 24%
    23:00 +19°C° 0 mm 1 mps 685 mmHg 25%

    1 February, Saturday

    Time Temperature Precipitation Wind Pressure Humidity
    00:00 +18°C° 0 mm 1 mps 685 mmHg 27%
    01:00 +16°C° 0 mm 1 mps 685 mmHg 29%
    02:00 +15°C° 0 mm 1 mps 684 mmHg 29%
    03:00 +15°C° 0 mm 1 mps 684 mmHg 29%
    04:00 +14°C° 0 mm 1 mps 684 mmHg 30%
    05:00 +14°C° 0 mm 1 mps 684 mmHg 29%
    06:00 +14°C° 0 mm 1 mps 685 mmHg 29%
    07:00 +14°C° 0 mm 1 mps 685 mmHg 28%
    08:00 +17°C° 0 mm 2 mps 686 mmHg 23%
    09:00 +21°C° 0 mm 3 mps 687 mmHg 18%
    10:00 +25°C° 0 mm 4 mps 688 mmHg 13%
    11:00 +27°C° 0 mm 4 mps 688 mmHg 12%
    12:00 +29°C° 0 mm 4 mps 688 mmHg 11%
    13:00 +30°C° 0 mm 4 mps 687 mmHg 10%
    14:00 +31°C° 0 mm 3 mps 687 mmHg 9%
    15:00 +31°C° 0 mm 3 mps 686 mmHg 9%
    16:00 +33°C° 0 mm 3 mps 685 mmHg 9%
    17:00 +29°C° 0 mm 3 mps 685 mmHg 12%
    18:00 +26°C° 0 mm 2 mps 685 mmHg 14%
    19:00 +23°C° 0 mm 2 mps 685 mmHg 16%
    20:00 +21°C° 0 mm 2 mps 685 mmHg 18%
    21:00 +21°C° 0 mm 1 mps 685 mmHg 19%
    22:00 +19°C° 0 mm 1 mps 685 mmHg 21%
    23:00 +18°C° 0 mm 1 mps 685 mmHg 22%

    2 February, Sunday

    Time Temperature Precipitation Wind Pressure Humidity
    00:00 +18°C° 0 mm 1 mps 685 mmHg 23%
    01:00 +16°C° 0 mm 1 mps 684 mmHg 24%
    02:00 +15°C° 0 mm 1 mps 684 mmHg 24%
    03:00 +15°C° 0 mm 1 mps 684 mmHg 25%
    04:00 +14°C° 0 mm 1 mps 684 mmHg 25%
    05:00 +14°C° 0 mm 1 mps 684 mmHg 24%
    06:00 +14°C° 0 mm 1 mps 684 mmHg 24%
    07:00 +14°C° 0 mm 1 mps 685 mmHg 23%
    08:00 +18°C° 0 mm 1 mps 686 mmHg 19%
    09:00 +20°C° 0 mm 2 mps 687 mmHg 15%
    10:00 +25°C° 0 mm 3 mps 688 mmHg 12%
    11:00 +27°C° 0 mm 3 mps 687 mmHg 11%
    12:00 +29°C° 0 mm 3 mps 687 mmHg 10%
    13:00 +31°C° 0 mm 3 mps 687 mmHg 9%
    14:00 +31°C° 0 mm 3 mps 686 mmHg 9%
    15:00 +31°C° 0 mm 3 mps 686 mmHg 8%
    16:00 +32°C° 0 mm 2 mps 685 mmHg 8%
    17:00 +29°C° 0 mm 2 mps 685 mmHg 10%
    18:00 +26°C° 0 mm 2 mps 685 mmHg 12%
    19:00 +23°C° 0 mm 2 mps 684 mmHg 14%
    20:00 +21°C° 0 mm 2 mps 685 mmHg 14%
    21:00 +20°C° 0 mm 1 mps 685 mmHg 15%
    22:00 +19°C° 0 mm 1 mps 685 mmHg 16%
    23:00 +18°C° 0 mm 1 mps 685 mmHg 16%

    3 February, Monday

    Time Temperature Precipitation Wind Pressure Humidity
    00:00 +18°C° 0 mm 1 mps 685 mmHg 17%
    01:00 +16°C° 0 mm 1 mps 685 mmHg 17%
    02:00 +16°C° 0 mm 1 mps 684 mmHg 18%
    03:00 +15°C° 0 mm 1 mps 684 mmHg 19%
    04:00 +14°C° 0 mm 1 mps 684 mmHg 20%
    05:00 +14°C° 0 mm 1 mps 684 mmHg 21%
    06:00 +14°C° 0 mm 1 mps 685 mmHg 22%
    07:00 +14°C° 0 mm 1 mps 685 mmHg 22%
    08:00 +18°C° 0 mm 1 mps 686 mmHg 18%
    09:00 +21°C° 0 mm 2 mps 687 mmHg 14%
    10:00 +25°C° 0 mm 3 mps 688 mmHg 10%
    11:00 +27°C° 0 mm 3 mps 688 mmHg 10%
    12:00 +29°C° 0 mm 3 mps 688 mmHg 9%
    13:00 +31°C° 0 mm 3 mps 687 mmHg 8%
    14:00 +31°C° 0 mm 3 mps 687 mmHg 8%
    15:00 +33°C° 0 mm 3 mps 686 mmHg 8%
    16:00 +33°C° 0 mm 3 mps 685 mmHg 8%
    17:00 +29°C° 0 mm 3 mps 685 mmHg 10%
    18:00 +27°C° 0 mm 2 mps 685 mmHg 12%
    19:00 +24°C° 0 mm 2 mps 684 mmHg 13%
    20:00 +21°C° 0 mm 2 mps 685 mmHg 15%
    21:00 +21°C° 0 mm 1 mps 685 mmHg 16%
    22:00 +19°C° 0 mm 1 mps 686 mmHg 17%
    23:00 +19°C° 0 mm 1 mps 685 mmHg 18%
    Show more